TimeMDT,TemperatureF,Dew PointF,Humidity,Sea Level PressureIn,VisibilityMPH,Wind Direction,Wind SpeedMPH,Gust SpeedMPH,PrecipitationIn,Events,Conditions,WindDirDegrees,DateUTC
12:15 AM,24.8,24.8,100,30.32,10.0,Calm,Calm,-,N/A,,Overcast,0,2012-10-26 06:15:00
12:55 AM,24.8,24.8,100,30.33,10.0,Calm,Calm,-,N/A,,Overcast,0,2012-10-26 06:55:00
1:15 AM,24.8,24.8,100,30.33,10.0,Calm,Calm,-,N/A,,Overcast,0,2012-10-26 07:15:00
1:35 AM,24.8,23.0,93,30.33,10.0,Calm,Calm,-,N/A,,Overcast,0,2012-10-26 07:35:00
1:55 AM,24.8,24.8,100,30.34,10.0,Calm,Calm,-,N/A,,Overcast,0,2012-10-26 07:55:00
2:15 AM,24.8,23.0,93,30.34,6.0,Calm,Calm,-,N/A,,Overcast,0,2012-10-26 08:15:00
2:35 AM,24.8,23.0,93,30.34,9.0,Calm,Calm,-,N/A,,Overcast,0,2012-10-26 08:35:00
2:55 AM,24.8,23.0,93,30.35,10.0,Calm,Calm,-,N/A,,Overcast,0,2012-10-26 08:55:00
3:35 AM,23.0,23.0,100,30.35,10.0,Calm,Calm,-,N/A,,Mostly Cloudy,0,2012-10-26 09:35:00
3:55 AM,21.2,19.4,93,30.35,10.0,East,5.8,-,N/A,,Mostly Cloudy,80,2012-10-26 09:55:00
4:35 AM,21.2,21.2,100,30.34,10.0,Calm,Calm,-,N/A,,Overcast,0,2012-10-26 10:35:00
4:55 AM,21.2,19.4,93,30.33,8.0,ESE,3.5,-,N/A,,Overcast,110,2012-10-26 10:55:00
5:15 AM,21.2,21.2,100,30.33,8.0,Calm,Calm,-,N/A,,Mostly Cloudy,0,2012-10-26 11:15:00
5:35 AM,21.2,19.4,93,30.33,10.0,SSW,3.5,-,N/A,,Scattered Clouds,200,2012-10-26 11:35:00
5:55 AM,17.6,17.6,100,30.34,10.0,North,3.5,-,N/A,,Mostly Cloudy,350,2012-10-26 11:55:00
6:35 AM,21.2,21.2,100,30.35,7.0,Calm,Calm,-,N/A,,Overcast,0,2012-10-26 12:35:00
6:51 AM,21.2,19.4,93,30.35,5.0,Calm,Calm,-,N/A,Snow,Light Snow,0,2012-10-26 12:51:00
7:55 AM,19.4,19.4,100,30.36,1.0,ESE,4.6,-,N/A,Snow,Snow,120,2012-10-26 13:55:00
8:51 AM,21.2,21.2,100,30.36,5.0,Calm,Calm,-,N/A,,Mostly Cloudy,0,2012-10-26 14:51:00
9:52 AM,23.0,21.2,93,30.36,10.0,South,4.6,-,N/A,,Partly Cloudy,180,2012-10-26 15:52:00
10:51 AM,28.4,23.0,80,30.35,10.0,South,13.8,-,N/A,,Scattered Clouds,180,2012-10-26 16:51:00
11:51 AM,30.2,21.2,69,30.34,10.0,South,18.4,28.8,N/A,Snow,Light Snow,170,2012-10-26 17:51:00
12:51 PM,30.2,21.2,69,30.31,10.0,South,13.8,23.0,N/A,Snow,Snow,170,2012-10-26 18:51:00
1:51 PM,32.0,19.4,60,30.28,10.0,South,17.3,23.0,N/A,Snow,Snow,190,2012-10-26 19:51:00
2:53 PM,32.0,19.4,60,30.23,10.0,South,12.7,20.7,N/A,Snow,Snow,180,2012-10-26 20:53:00
3:52 PM,30.2,21.2,69,30.21,10.0,South,13.8,-,N/A,Snow,Snow,170,2012-10-26 21:52:00
4:52 PM,30.2,19.4,64,30.18,10.0,South,18.4,-,N/A,Snow,Snow,190,2012-10-26 22:52:00
5:51 PM,30.2,21.2,69,30.17,10.0,South,10.4,16.1,N/A,Snow,Snow,190,2012-10-26 23:51:00
6:58 PM,28.4,21.2,74,30.16,6.0,South,13.8,-,N/A,Snow,Snow,180,2012-10-27 00:58:00
7:51 PM,26.6,24.8,93,30.17,5.0,South,9.2,-,N/A,Snow,Light Snow,180,2012-10-27 01:51:00
8:51 PM,26.6,24.8,93,30.16,3.0,South,8.1,-,N/A,Snow,Light Snow,170,2012-10-27 02:51:00
9:15 PM,26.6,24.8,93,30.15,2.0,SSW,9.2,-,N/A,,Overcast,200,2012-10-27 03:15:00
9:35 PM,26.6,24.8,93,30.14,4.0,SSW,6.9,-,N/A,,Overcast,200,2012-10-27 03:35:00
9:55 PM,26.6,24.8,93,30.14,10.0,SW,4.6,-,N/A,,Overcast,220,2012-10-27 03:55:00
10:15 PM,26.6,26.6,100,30.13,9.0,SSW,5.8,-,N/A,,Overcast,210,2012-10-27 04:15:00
10:35 PM,26.6,26.6,100,30.13,10.0,WSW,3.5,-,N/A,,Overcast,240,2012-10-27 04:35:00
10:55 PM,26.6,26.6,100,30.13,10.0,SW,6.9,-,N/A,,Overcast,230,2012-10-27 04:55:00
11:16 PM,26.6,26.6,100,30.13,10.0,SW,4.6,-,N/A,,Overcast,220,2012-10-27 05:16:00
11:35 PM,26.6,26.6,100,30.12,8.0,SW,5.8,-,N/A,,Overcast,230,2012-10-27 05:35:00
11:55 PM,26.6,26.6,100,30.12,6.0,SW,9.2,-,N/A,,Overcast,220,2012-10-27 05:55:00